Siloam Springs, AR

9:56 AM CDT on March 29, 2017 (GMT -0500)
Smith

Weather History for KSLG - April, 2014

Change the Weather History Date:

Thursday, April 10, 2014

  Actual Average Record
Temperature  
Mean Temperature 70 °F -  
Max Temperature 82 °F 64 °F 82 °F (2014)
Min Temperature 59 °F 46 °F 26 °F (2003)
Cooling Degree Days 6    
Growing Degree Days 20 (Base 50)    
Moisture  
Dew Point 45 °F    
Average Humidity 42    
Maximum Humidity 52    
Minimum Humidity 30    
Precipitation  
Precipitation 0.00 in - - ()
Sea Level Pressure  
Sea Level Pressure 29.90 in    
Wind  
Wind Speed 17 mph (SSW)    
Max Wind Speed 25 mph    
Max Gust Speed 34 mph    
Visibility 10 miles    
Events      
Averages and records for this station are not official NWS values.
T = Trace of Precipitation, MM = Missing Value Source: NWS Daily Summary

Daily Weather History Graph

Daily Weather History Graph

Search for Another Location

Airport or City:

Trip Planner

Search our weather history database for the weather conditions in past years. The results will help you decide how hot, cold, wet, or windy it might be!

Date:

Astronomy

Apr. 10, 2014 Rise Set
Actual Time 6:51 AM CDT 7:47 PM CDT
Civil Twilight 6:25 AM CDT 8:13 PM CDT
Nautical Twilight 5:54 AM CDT 8:45 PM CDT
Astronomical Twilight 5:22 AM CDT 9:17 PM CDT
Moon 3:39 PM CDT (4/10) 4:06 AM CDT (4/10)
Length of Visible Light 13h 48m
Length of Day
12h 56m
Waxing Gibbous, 80% of the Moon is Illuminated
Apr 10
Waxing Gibbous
Apr 15
Full
Apr 22
Last Quarter
Apr 29
New
May 6
First Quarter

Hourly Weather History & Observations

Time (CDT) Temp. Dew Point Humidity Pressure Visibility Wind Dir Wind Speed Gust Speed Precip Events Conditions
12:15 AM 60.8 °F 35.6 °F 39% 29.97 in 10.0 mi South 12.7 mph 16.1 mph N/A   Clear
12:35 AM 60.8 °F 37.4 °F 42% 29.96 in 10.0 mi South 16.1 mph 24.2 mph N/A   Clear
12:55 AM 60.8 °F 37.4 °F 42% 29.96 in 10.0 mi South 16.1 mph 21.9 mph N/A   Clear
1:15 AM 60.8 °F 37.4 °F 42% 29.95 in 10.0 mi South 17.3 mph 21.9 mph N/A   Clear
1:35 AM 60.8 °F 37.4 °F 42% 29.95 in 10.0 mi SSW 17.3 mph 24.2 mph N/A   Clear
1:55 AM 60.8 °F 37.4 °F 42% 29.95 in 10.0 mi South 18.4 mph - N/A   Clear
2:15 AM 60.8 °F 37.4 °F 42% 29.94 in 10.0 mi South 16.1 mph - N/A   Clear
2:35 AM 60.8 °F 37.4 °F 42% 29.93 in 10.0 mi South 16.1 mph 21.9 mph N/A   Clear
2:55 AM 60.8 °F 37.4 °F 42% 29.93 in 10.0 mi South 16.1 mph 20.7 mph N/A   Clear
3:15 AM 59.0 °F 37.4 °F 45% 29.93 in 10.0 mi South 15.0 mph - N/A   Clear
3:35 AM 59.0 °F 37.4 °F 45% 29.93 in 10.0 mi SSW 16.1 mph 21.9 mph N/A   Clear
3:55 AM 59.0 °F 37.4 °F 45% 29.93 in 10.0 mi SSW 16.1 mph 23.0 mph N/A   Clear
4:15 AM 59.0 °F 37.4 °F 45% 29.92 in 10.0 mi SSW 18.4 mph 26.5 mph N/A   Clear
4:35 AM 59.0 °F 39.2 °F 48% 29.91 in 10.0 mi SSW 17.3 mph - N/A   Clear
4:55 AM 59.0 °F 39.2 °F 48% 29.91 in 10.0 mi SSW 16.1 mph 20.7 mph N/A   Clear
5:15 AM 60.8 °F 39.2 °F 45% 29.91 in 10.0 mi SSW 17.3 mph 25.3 mph N/A   Clear
5:35 AM 59.0 °F 39.2 °F 48% 29.91 in 10.0 mi SSW 16.1 mph - N/A   Clear
5:55 AM 59.0 °F 39.2 °F 48% 29.91 in 10.0 mi SSW 16.1 mph 23.0 mph N/A   Clear
6:15 AM 59.0 °F 39.2 °F 48% 29.90 in 10.0 mi SSW 15.0 mph - N/A   Clear
6:35 AM 59.0 °F 39.2 °F 48% 29.90 in 10.0 mi South 18.4 mph 24.2 mph N/A   Clear
6:55 AM 60.8 °F 39.2 °F 45% 29.89 in 10.0 mi South 18.4 mph 21.9 mph N/A   Clear
7:15 AM 60.8 °F 41.0 °F 48% 29.90 in 10.0 mi South 20.7 mph 26.5 mph N/A   Clear
7:35 AM 60.8 °F 42.8 °F 52% 29.91 in 10.0 mi SSW 18.4 mph 28.8 mph N/A   Clear
7:55 AM 62.6 °F 42.8 °F 48% 29.91 in 10.0 mi South 20.7 mph 28.8 mph N/A   Clear
8:15 AM 62.6 °F 44.6 °F 52% 29.91 in 10.0 mi South 21.9 mph 27.6 mph N/A   Clear
8:35 AM 64.4 °F 44.6 °F 49% 29.91 in 10.0 mi SSW 18.4 mph 25.3 mph N/A   Clear
8:55 AM 64.4 °F 44.6 °F 49% 29.91 in 10.0 mi SSW 20.7 mph 26.5 mph N/A   Clear
9:15 AM 66.2 °F 46.4 °F 49% 29.90 in 10.0 mi SSW 19.6 mph 29.9 mph N/A   Clear
9:35 AM 66.2 °F 46.4 °F 49% 29.90 in 10.0 mi SSW 21.9 mph 32.2 mph N/A   Clear
9:55 AM 66.2 °F 46.4 °F 49% 29.90 in 10.0 mi SSW 21.9 mph 31.1 mph N/A   Clear
10:15 AM 68.0 °F 46.4 °F 46% 29.90 in 10.0 mi SSW 20.7 mph 28.8 mph N/A   Clear
10:35 AM 69.8 °F 46.4 °F 43% 29.91 in 10.0 mi SSW 21.9 mph 29.9 mph N/A   Clear
10:55 AM 69.8 °F 48.2 °F 46% 29.91 in 10.0 mi SSW 24.2 mph 29.9 mph N/A   Clear
11:15 AM 69.8 °F 48.2 °F 46% 29.91 in 10.0 mi SSW 19.6 mph 31.1 mph N/A   Clear
11:35 AM 71.6 °F 48.2 °F 43% 29.92 in 10.0 mi SSW 15.0 mph 21.9 mph N/A   Clear
11:55 AM 73.4 °F 50.0 °F 44% 29.91 in 10.0 mi SSW 18.4 mph 23.0 mph N/A   Clear
12:15 PM 75.2 °F 50.0 °F 41% 29.90 in 10.0 mi SW 18.4 mph 26.5 mph N/A   Clear
12:35 PM 75.2 °F 50.0 °F 41% 29.89 in 10.0 mi SSW 24.2 mph 31.1 mph N/A   Clear
12:55 PM 77.0 °F 48.2 °F 36% 29.88 in 10.0 mi SSW 24.2 mph 31.1 mph N/A   Clear
1:15 PM 77.0 °F 48.2 °F 36% 29.87 in 10.0 mi SSW 23.0 mph 28.8 mph N/A   Clear
1:35 PM 78.8 °F 50.0 °F 36% 29.86 in 10.0 mi SSW 25.3 mph 31.1 mph N/A   Clear
1:55 PM 78.8 °F 50.0 °F 36% 29.85 in 10.0 mi SSW 24.2 mph 28.8 mph N/A   Clear
2:15 PM 80.6 °F 50.0 °F 34% 29.84 in 10.0 mi SW 23.0 mph 28.8 mph N/A   Clear
2:35 PM 80.6 °F 50.0 °F 34% 29.85 in 10.0 mi SSW 19.6 mph 33.4 mph N/A   Clear
2:55 PM 80.6 °F 50.0 °F 34% 29.84 in 10.0 mi SW 20.7 mph 28.8 mph N/A   Clear
3:15 PM 82.4 °F 48.2 °F 30% 29.84 in 10.0 mi WSW 21.9 mph 34.5 mph N/A   Clear
3:35 PM 82.4 °F 48.2 °F 30% 29.84 in 10.0 mi WSW 19.6 mph 27.6 mph N/A   Clear
3:55 PM 82.4 °F 50.0 °F 32% 29.84 in 10.0 mi WSW 17.3 mph 27.6 mph N/A   Clear
4:15 PM 82.4 °F 48.2 °F 30% 29.84 in 10.0 mi SW 18.4 mph 27.6 mph N/A   Clear
4:35 PM 80.6 °F 48.2 °F 32% 29.84 in 10.0 mi SW 20.7 mph 28.8 mph N/A   Clear
4:55 PM 80.6 °F 48.2 °F 32% 29.85 in 10.0 mi SW 16.1 mph 25.3 mph N/A   Clear
5:15 PM 80.6 °F 50.0 °F 34% 29.84 in 10.0 mi SSW 18.4 mph 24.2 mph N/A   Clear
5:35 PM 80.6 °F 48.2 °F 32% 29.85 in 10.0 mi WSW 16.1 mph 27.6 mph N/A   Clear
5:55 PM 80.6 °F 48.2 °F 32% 29.85 in 10.0 mi WSW 17.3 mph 21.9 mph N/A   Clear
6:15 PM 78.8 °F 48.2 °F 34% 29.86 in 10.0 mi WSW 17.3 mph 24.2 mph N/A   Clear
6:35 PM 78.8 °F 48.2 °F 34% 29.86 in 10.0 mi WSW 15.0 mph 20.7 mph N/A   Scattered Clouds
6:55 PM 78.8 °F 48.2 °F 34% 29.87 in 10.0 mi WSW 11.5 mph - N/A   Scattered Clouds
7:15 PM 75.2 °F 50.0 °F 41% 29.87 in 10.0 mi SW 9.2 mph - N/A   Mostly Cloudy
7:35 PM 75.2 °F 48.2 °F 38% 29.88 in 10.0 mi SW 9.2 mph - N/A   Mostly Cloudy
7:55 PM 71.6 °F 48.2 °F 43% 29.88 in 10.0 mi South 6.9 mph - N/A   Partly Cloudy
8:15 PM 73.4 °F 48.2 °F 41% 29.89 in 10.0 mi South 10.4 mph - N/A   Clear
8:35 PM 71.6 °F 48.2 °F 43% 29.90 in 10.0 mi South 9.2 mph - N/A   Clear
8:55 PM 69.8 °F 48.2 °F 46% 29.91 in 10.0 mi South 9.2 mph - N/A   Clear
9:15 PM 69.8 °F 48.2 °F 46% 29.92 in 10.0 mi SSW 10.4 mph - N/A   Clear
9:35 PM 66.2 °F 48.2 °F 52% 29.93 in 10.0 mi SSW 9.2 mph - N/A   Clear
9:55 PM 66.2 °F 48.2 °F 52% 29.95 in 10.0 mi SSW 9.2 mph - N/A   Clear
10:15 PM 66.2 °F 48.2 °F 52% 29.96 in 10.0 mi SW 6.9 mph - N/A   Mostly Cloudy
10:35 PM 69.8 °F 48.2 °F 46% 29.96 in 10.0 mi SW 8.1 mph - N/A   Scattered Clouds
10:55 PM 69.8 °F 48.2 °F 46% 29.97 in 10.0 mi SW 9.2 mph - N/A   Mostly Cloudy
11:15 PM 69.8 °F 48.2 °F 46% 29.97 in 10.0 mi SW 8.1 mph - N/A   Mostly Cloudy
11:35 PM 66.2 °F 48.2 °F 52% 29.97 in 10.0 mi WSW 5.8 mph - N/A   Mostly Cloudy
11:55 PM 64.4 °F 46.4 °F 52% 29.97 in 10.0 mi SW 5.8 mph - N/A   Clear